Find OneWeb SL0435

NORAD ID: 51632 Int'l Des: 2022-012 Owner: ONEWEBN Country: UK Constellation: oneweb operational
LEOCIRCULARPOLARONEWEB_TYPE

Live Position

Loading 3D Globe...

About OneWeb SL0435

Description loading...

Upcoming Passes

Passes for default location (London). Set your location on the main map for personalized predictions.

Altitude History

Loading altitude history...

Two-Line Element Set

1 51632U 22012L 26124.29003322 .00000253 00000-0 68778-3 0 9999
2 51632 87.8860 45.0140 0002019 72.3825 287.7523 13.10375678203560
Epoch: May 4, 2026 • Age: 9 hours

Current Status

Altitude 1226.1 km
Velocity 7.24 km/s
Sub-Earth Point -9.74°S, 59.09°W
Launch Date Feb 10, 2022
Age 4.2 years
Type internet

Technical Details

Classification Payload
Mass 148.00 kg
Dry Mass 140.00 kg
Total Mass 148.00 kg
Length 1.30 m
Diameter 1.00 m
Span 5.00 m
Shape Trapezoid+2 pan
Manufacturer ONEWUS
Bus Type ARROW
Phase Status In Orbit
Owner/State ONEWEBN/UK

Most Searched